• In Italy
  • List of Countries
  • For 7 days
  • Water Temperature
  • Satellite Maps
  • Weather Map
  • Weather Widgets
  • user-avatar
    Login

    Hourly Weather Brisbane

    Today, 19 February, Monday

    Time Temperature Precipitation Wind Pressure Humidity
    00:00 +24°C° 0 mm 3 mps 756 mmHg 82%
    01:00 +24°C° 0 mm 3 mps 755 mmHg 83%
    02:00 +24°C° 0 mm 3 mps 755 mmHg 83%
    03:00 +23°C° 0 mm 2 mps 755 mmHg 84%
    04:00 +22°C° 0 mm 3 mps 755 mmHg 85%
    05:00 +24°C° 0 mm 2 mps 755 mmHg 83%
    06:00 +24°C° 0 mm 2 mps 755 mmHg 80%
    07:00 +25°C° 0 mm 2 mps 755 mmHg 77%
    08:00 +28°C° 0 mm 2 mps 755 mmHg 64%
    09:00 +31°C° 0 mm 2 mps 755 mmHg 50%
    10:00 +34°C° 0 mm 1 mps 756 mmHg 41%
    11:00 +36°C° 0 mm 2 mps 755 mmHg 38%
    12:00 +37°C° 0 mm 2 mps 755 mmHg 34%
    13:00 +38°C° 0 mm 2 mps 754 mmHg 30%
    14:00 +37°C° 0 mm 3 mps 754 mmHg 33%
    15:00 +36°C° 0 mm 3 mps 753 mmHg 37%
    16:00 +35°C° 0 mm 4 mps 753 mmHg 40%
    17:00 +33°C° 0 mm 4 mps 753 mmHg 50%
    18:00 +30°C° 0 mm 4 mps 754 mmHg 60%
    19:00 +28°C° 0 mm 4 mps 754 mmHg 70%
    20:00 +27°C° 0 mm 4 mps 754 mmHg 72%
    21:00 +26°C° 0 mm 3 mps 755 mmHg 74%
    22:00 +26°C° 0 mm 3 mps 755 mmHg 76%
    23:00 +26°C° 0 mm 3 mps 755 mmHg 78%

    Tomorrow, 20 February, Tuesday

    Time Temperature Precipitation Wind Pressure Humidity
    00:00 +25°C° 0 mm 3 mps 755 mmHg 79%
    01:00 +25°C° 0 mm 4 mps 755 mmHg 81%
    02:00 +25°C° 0.1 mm 3 mps 755 mmHg 83%
    03:00 +24°C° 0.1 mm 3 mps 755 mmHg 85%
    04:00 +24°C° 0.1 mm 3 mps 755 mmHg 86%
    05:00 +24°C° 1.2 mm 3 mps 756 mmHg 88%
    06:00 +24°C° 1.2 mm 3 mps 756 mmHg 89%
    07:00 +23°C° 1.2 mm 4 mps 757 mmHg 90%
    08:00 +23°C° 1.4 mm 4 mps 757 mmHg 89%
    09:00 +23°C° 1.4 mm 4 mps 757 mmHg 88%
    10:00 +23°C° 1.4 mm 5 mps 757 mmHg 87%
    11:00 +25°C° 0.4 mm 5 mps 756 mmHg 78%
    12:00 +27°C° 0.4 mm 5 mps 756 mmHg 69%
    13:00 +28°C° 0.4 mm 5 mps 755 mmHg 61%
    14:00 +29°C° 0 mm 5 mps 755 mmHg 56%
    15:00 +29°C° 0 mm 5 mps 755 mmHg 51%
    16:00 +30°C° 0 mm 6 mps 755 mmHg 46%
    17:00 +29°C° 0 mm 6 mps 755 mmHg 54%
    18:00 +27°C° 0 mm 6 mps 755 mmHg 62%
    19:00 +26°C° 0 mm 6 mps 756 mmHg 69%
    20:00 +25°C° 0.4 mm 5 mps 756 mmHg 73%
    21:00 +25°C° 0.4 mm 5 mps 757 mmHg 78%
    22:00 +23°C° 0.4 mm 5 mps 757 mmHg 82%
    23:00 +23°C° 0.5 mm 5 mps 757 mmHg 82%

    Day after tomorrow, 21 February, Wednesday

    Time Temperature Precipitation Wind Pressure Humidity
    00:00 +23°C° 0.5 mm 6 mps 757 mmHg 83%
    01:00 +23°C° 0.5 mm 6 mps 757 mmHg 83%
    02:00 +23°C° 0.6 mm 6 mps 757 mmHg 83%
    03:00 +22°C° 0.6 mm 6 mps 756 mmHg 83%
    04:00 +22°C° 0.6 mm 6 mps 756 mmHg 83%
    05:00 +22°C° 0.4 mm 6 mps 757 mmHg 82%
    06:00 +22°C° 0.4 mm 7 mps 757 mmHg 82%
    07:00 +23°C° 0.4 mm 7 mps 758 mmHg 81%
    08:00 +23°C° 0.5 mm 7 mps 758 mmHg 76%
    09:00 +24°C° 0.5 mm 7 mps 758 mmHg 72%
    10:00 +26°C° 0.5 mm 7 mps 759 mmHg 67%
    11:00 +27°C° 0.4 mm 7 mps 758 mmHg 66%
    12:00 +27°C° 0.4 mm 7 mps 758 mmHg 64%
    13:00 +28°C° 0.4 mm 7 mps 758 mmHg 62%
    14:00 +27°C° 0.3 mm 7 mps 758 mmHg 62%
    15:00 +27°C° 0.3 mm 7 mps 757 mmHg 63%
    16:00 +27°C° 0.3 mm 7 mps 757 mmHg 63%
    17:00 +26°C° 0.2 mm 7 mps 757 mmHg 66%
    18:00 +24°C° 0.2 mm 6 mps 758 mmHg 69%
    19:00 +24°C° 0.2 mm 6 mps 758 mmHg 72%
    20:00 +23°C° 0.2 mm 6 mps 758 mmHg 73%
    21:00 +23°C° 0.2 mm 6 mps 759 mmHg 74%
    22:00 +23°C° 0.2 mm 6 mps 759 mmHg 75%
    23:00 +23°C° 0.2 mm 6 mps 759 mmHg 76%

    22 February, Thursday

    Time Temperature Precipitation Wind Pressure Humidity
    00:00 +23°C° 0.2 mm 5 mps 759 mmHg 76%
    01:00 +23°C° 0.2 mm 5 mps 758 mmHg 77%
    02:00 +23°C° 0.1 mm 5 mps 758 mmHg 78%
    03:00 +23°C° 0.1 mm 5 mps 758 mmHg 78%
    04:00 +22°C° 0.1 mm 5 mps 758 mmHg 79%
    05:00 +23°C° 0.1 mm 5 mps 758 mmHg 77%
    06:00 +23°C° 0.1 mm 6 mps 759 mmHg 76%
    07:00 +24°C° 0.1 mm 6 mps 759 mmHg 74%
    08:00 +24°C° 1.1 mm 6 mps 759 mmHg 72%
    09:00 +26°C° 1.1 mm 6 mps 759 mmHg 70%
    10:00 +27°C° 1.1 mm 7 mps 759 mmHg 67%
    11:00 +26°C° 1.4 mm 7 mps 759 mmHg 71%
    12:00 +26°C° 1.4 mm 6 mps 759 mmHg 74%
    13:00 +24°C° 1.4 mm 6 mps 758 mmHg 77%
    14:00 +24°C° 1.1 mm 6 mps 758 mmHg 78%
    15:00 +24°C° 1.1 mm 6 mps 758 mmHg 79%
    16:00 +25°C° 1.1 mm 5 mps 758 mmHg 80%
    17:00 +25°C° 1.7 mm 5 mps 758 mmHg 82%
    18:00 +25°C° 1.7 mm 5 mps 758 mmHg 85%
    19:00 +23°C° 1.7 mm 5 mps 759 mmHg 87%
    20:00 +23°C° 2.3 mm 5 mps 759 mmHg 88%
    21:00 +23°C° 2.3 mm 5 mps 759 mmHg 89%
    22:00 +23°C° 2.3 mm 5 mps 759 mmHg 90%
    23:00 +23°C° 2.3 mm 4 mps 759 mmHg 91%

    23 February, Friday

    Time Temperature Precipitation Wind Pressure Humidity
    00:00 +23°C° 2.3 mm 4 mps 758 mmHg 91%
    01:00 +24°C° 2.3 mm 3 mps 758 mmHg 92%
    02:00 +24°C° 2.4 mm 3 mps 758 mmHg 92%
    03:00 +24°C° 2.4 mm 3 mps 758 mmHg 93%
    04:00 +24°C° 2.4 mm 3 mps 758 mmHg 93%
    05:00 +24°C° 1.7 mm 3 mps 758 mmHg 92%
    06:00 +24°C° 1.7 mm 3 mps 758 mmHg 92%
    07:00 +24°C° 1.7 mm 2 mps 759 mmHg 91%
    08:00 +26°C° 1 mm 2 mps 759 mmHg 84%
    09:00 +27°C° 1 mm 2 mps 759 mmHg 77%
    10:00 +29°C° 1 mm 2 mps 759 mmHg 70%
    11:00 +29°C° 1.2 mm 3 mps 758 mmHg 70%
    12:00 +30°C° 1.2 mm 3 mps 758 mmHg 70%
    13:00 +30°C° 1.2 mm 3 mps 757 mmHg 70%
    14:00 +30°C° 0.6 mm 4 mps 757 mmHg 71%
    15:00 +30°C° 0.6 mm 4 mps 757 mmHg 72%
    16:00 +29°C° 0.6 mm 4 mps 757 mmHg 73%
    17:00 +28°C° 0.4 mm 4 mps 757 mmHg 77%
    18:00 +27°C° 0.4 mm 3 mps 757 mmHg 82%
    19:00 +26°C° 0.4 mm 3 mps 758 mmHg 87%
    20:00 +26°C° 1.1 mm 3 mps 758 mmHg 88%
    21:00 +26°C° 1.1 mm 3 mps 758 mmHg 90%
    22:00 +25°C° 1.1 mm 3 mps 758 mmHg 91%
    23:00 +25°C° 1 mm 2 mps 758 mmHg 92%

    24 February, Saturday

    Time Temperature Precipitation Wind Pressure Humidity
    00:00 +25°C° 1 mm 2 mps 758 mmHg 92%
    01:00 +25°C° 1 mm 2 mps 757 mmHg 92%
    02:00 +25°C° 1.1 mm 2 mps 757 mmHg 93%
    03:00 +24°C° 1.1 mm 2 mps 757 mmHg 93%
    04:00 +24°C° 1.1 mm 2 mps 757 mmHg 94%
    05:00 +25°C° 0.7 mm 2 mps 757 mmHg 93%
    06:00 +25°C° 0.7 mm 1 mps 758 mmHg 91%
    07:00 +25°C° 0.7 mm 1 mps 758 mmHg 90%
    08:00 +27°C° 0.9 mm 1 mps 758 mmHg 83%
    09:00 +29°C° 0.9 mm 1 mps 758 mmHg 75%
    10:00 +31°C° 0.9 mm 1 mps 758 mmHg 67%
    11:00 +31°C° 1 mm 1 mps 757 mmHg 65%
    12:00 +32°C° 1 mm 2 mps 757 mmHg 63%
    13:00 +33°C° 1 mm 3 mps 756 mmHg 60%
    14:00 +33°C° 0.6 mm 3 mps 756 mmHg 64%
    15:00 +31°C° 0.6 mm 3 mps 756 mmHg 67%
    16:00 +30°C° 0.6 mm 4 mps 755 mmHg 70%
    17:00 +29°C° 0.3 mm 3 mps 756 mmHg 75%
    18:00 +28°C° 0.3 mm 3 mps 756 mmHg 79%
    19:00 +27°C° 0.3 mm 3 mps 756 mmHg 84%
    20:00 +27°C° 0.1 mm 2 mps 757 mmHg 86%
    21:00 +26°C° 0.1 mm 2 mps 757 mmHg 88%
    22:00 +26°C° 0.1 mm 2 mps 757 mmHg 89%
    23:00 +26°C° 0.1 mm 2 mps 757 mmHg 90%
    Show more